Hourly Data Report for August 02, 2021

QUALICUM BEACH AIRPORT
BRITISH COLUMBIA
Current Station Operator: ECCC - MSC

49°20'14.000" N
124°23'38.000" W
58.20 m
1026562
71766
VOQ

Download Data

Hourly Data (August 2021)
Hourly Data Report for August 2, 2021
TIME
LST
Temp Definition
°C
Dew Point Definition
°C
Rel Hum Definition
%
Precip. Amount Definition
mm

Wind Dir Definition
10's deg

Wind Spd Definition
km/h
Visibility Definition
km
Stn Press Definition
kPa
Hmdx Definition


Wind Chill Definition


Weather Definition


00:00 20.4 18.1 87 0.0 29 8   101.21 26   LegendNANA
01:00 20.0 18.2 90 0.0 27 7   101.26 26   LegendNANA
02:00 19.2 15.9 82 0.0 31 7   101.29     LegendNANA
03:00 18.5 15.1 81 0.0 31 6   101.34     LegendNANA
04:00 17.2 14.9 86 0.0 27 3   101.38     LegendNANA
05:00 16.2 14.3 89 0.0 26 1   101.41     LegendNANA
06:00 17.0 15.1 88 0.0 27 2   101.47     LegendNANA
07:00 18.5 14.1 75 0.0 31 9   101.48     LegendNANA
08:00 19.0 13.8 72 0.0 33 8   101.50     LegendNANA
09:00 20.6 14.3 67 0.0 36 10   101.50     LegendNANA
10:00 20.4 14.2 67 0.0 35 11   101.47     LegendNANA
11:00 21.8 14.4 63 0.0 33 10   101.46 25   LegendNANA
12:00 22.3 14.4 61 0.0 1 10   101.42 26   LegendNANA
13:00 24.2 14.4 54 0.0 2 7   101.38 28   LegendNANA
14:00 24.8 14.9 54 0.0 5 8   101.34 29   LegendNANA
15:00 24.7 15.2 56 0.0 3 5   101.29 29   LegendNANA
16:00 25.7 16.1 55 0.0 5 4   101.22 30   LegendNANA
17:00 24.6 16.1 59 0.0 36 5   101.21 29   LegendNANA
18:00 23.8 16.0 61 0.0 1 6   101.18 28   LegendNANA
19:00 23.8 15.8 61 0.0 36 5   101.16 28   LegendNANA
20:00 21.6 15.3 67 0.0 25 2   101.15 26   LegendNANA
21:00 20.2 15.1 72 0.0 28 3   101.18     LegendNANA
22:00 20.3 15.9 76 0.0 28 5   101.22 25   LegendNANA
23:00 19.9 15.3 75 0.0 29 2   101.23     LegendNANA

Notes on Data Quality.

Legend

  • E = Estimated
  • M = Missing
  • NA = Not Available*
  • [empty] = Indicates an unobserved value
Date modified: